Temperature
19 19 18 18 18 18 18 18 18 19 19 19 18 18 18 18 18 18 18 18 18 18 18 18 18 18 18 17 17 17 17 17 17 17 17 17 17 17 17 17 17 16 16
19 19 19 18 18 18 18 18 18 19 18 18 18 18 18 18 18 18 18 18 18 18 18 18 18 18 18 17 17 17 17 17 17 17 17 17 17 17 17 17 17 16 16
19 19 19 18 18 18 18 18 18 18 18 18 18 18 18 18 18 18 18 18 18 18 18 18 18 18 18 18 17 17 17 17 17 17 17 17 17 17 17 17 16 16 16
19 18 18 18 18 18 18 18 18 18 18 18 18 18 18 18 18 18 18 18 18 18 18 18 18 18 18 17 17 17 17 17 17 17 17 17 17 17 17 17 16 16 16
18 18 18 18 18 18 18 18 18 18 18 18 18 18 18 18 18 18 18 18 18 18 18 18 18 18 18 17 17 17 17 17 17 17 17 17 17 17 16 16 16 16 16
18 18 18 18 18 18 18 18 18 18 18 18 18 18 18 18 18 18 18 18 18 18 18 18 18 17 17 17 17 17 17 17 17 17 17 17 17 17 16 16 16 16 16
18 18 18 18 18 18 18 18 18 18 18 18 18 18 18 18 18 18 18 18 18 18 18 17 17 17 17 17 17 17 17 17 17 17 17 17 17 16 16 16 16 16 16
18 18 18 18 18 18 18 18 18 18 18 18 18 17 17 17 17 17 17 18 17 17 17 17 17 17 17 17 17 17 17 17 17 17 17 17 16 16 16 16 16 16 16
18 18 18 18 18 18 18 17 18 18 17 17 17 17 17 17 17 17 17 17 17 17 17 17 17 17 17 17 17 17 17 17 17 17 17 17 16 16 16 16 16 16 16
18 18 18 18 18 18 18 18 17 17 18 17 17 17 17 17 17 17 17 17 17 17 17 17 17 17 17 17 17 17 17 17 17 17 16 16 16 16 16 16 16 16 16
18 18 18 17 17 17 17 17 17 17 17 17 17 17 17 17 17 17 17 17 17 17 17 17 17 17 17 17 17 17 17 17 17 17 16 16 16 16 16 16 16 15 15
18 18 17 17 17 17 17 17 17 17 17 17 17 17 17 17 17 17 17 17 17 17 17 17 17 17 17 17 17 17 17 17 17 16 16 16 16 16 15 15 15 15 15
18 17 17 17 17 17 17 17 17 17 17 17 17 17 17 17 17 17 17 17 16 16 16 16 17 16 17 16 16 17 16 16 16 16 16 16 16 15 15 15 15 15 15
17 17 17 17 17 17 17 17 17 17 17 17 17 17 17 17 17 17 17 17 16 16 16 16 16 16 16 16 16 16 16 16 16 16 16 15 15 15 15 15 15 15 15
17 17 17 17 17 17 16 16 16 17 17 17 17 17 17 17 17 17 17 17 16 16 16 16 16 16 16 16 16 16 16 16 16 16 15 15 15 15 15 15 15 15 14
17 17 17 17 16 16 16 16 16 16 16 16 16 16 16 16 16 16 16 16 16 16 16 16 16 16 16 16 16 16 16 16 15 15 15 15 15 15 15 15 15 14 14
17 17 16 16 16 16 16 16 16 16 16 16 16 16 16 16 16 16 16 16 16 16 16 15 15 15 15 15 15 15 15 15 15 15 15 15 15 15 15 15 14 14 14
16 16 16 16 16 16 16 16 16 16 16 16 16 16 16 16 16 16 16 16 16 16 16 15 15 15 15 15 15 15 15 15 15 15 15 15 14 14 14 14 14 14 14
16 16 16 16 16 16 16 16 15 16 16 16 16 16 16 15 16 15 15 15 15 15 15 15 15 15 15 15 15 15 15 15 15 14 14 14 14 14 14 14 14 14 14
16 16 16 16 16 15 15 15 15 15 15 15 15 15 15 15 15 15 15 15 15 15 15 14 14 14 14 14 14 14 14 14 14 14 14 14 14 14 14 14 14 14 14
16 16 15 15 15 15 15 15 15 15 15 15 15 15 15 15 15 14 14 14 14 14 14 14 14 14 14 14 14 14 14 14 14 14 14 14 14 14 14 14 14 13 13
16 15 15 15 15 15 15 15 15 15 15 15 14 14 14 14 14 14 14 14 14 14 13 13 13 13 13 13 13 13 13 13 13 14 13 14 14 14 14 13 13 13 13
15 15 15 15 15 15 15 15 15 14 14 14 14 14 14 14 14 13 13 13 13 13 13 13 13 13 13 13 13 13 13 13 13 13 13 13 13 13 13 13 13 13 13
15 15 15 15 14 14 14 14 14 14 14 14 14 14 13 13 13 13 13 13 13 13 12 12 12 12 12 12 12 12 12 12 13 13 13 13 13 13 13 13 13 13 13
15 15 14 14 14 14 14 14 14 14 14 13 13 13 13 13 13 13 13 13 13 12 12 12 12 12 12 12 12 12 12 12 12 12 12 12 13 13 13 13 13 13 13
14 14 14 14 14 14 14 13 13 13 13 13 13 13 13 12 12 12 12 12 12 12 12 12 12 12 12 12 12 12 12 12 12 12 12 12 12 12 12 12 12 12 12
Wind_Speed
3 3 2 2 2 2 2 1 2 3 3 4 5 5 5 5 5 5 6 10 11 11 11 12 12 12 12 11 11 11 11 11 11 11 10 10 9 9 9 9 10 10 10
3 3 3 2 2 2 2 2 3 3 2 3 4 4 5 5 5 5 5 7 10 11 11 11 11 11 11 11 11 11 11 11 11 11 10 10 9 9 9 9 10 10 10
4 3 3 3 2 3 3 3 4 4 3 4 4 4 4 4 5 5 5 5 6 9 10 10 10 10 11 11 11 11 11 11 11 10 10 9 9 9 9 10 10 10 11
5 4 3 2 2 3 3 3 3 4 4 4 3 3 3 3 4 5 5 4 5 5 7 9 8 9 10 10 10 10 11 11 10 10 10 9 9 9 9 9 9 10 10
5 4 3 2 3 3 3 4 4 4 4 3 3 3 3 3 3 4 4 4 4 4 5 7 8 8 9 9 9 9 10 10 10 10 10 10 9 9 8 8 8 9 10
5 4 3 3 3 4 4 4 4 4 3 3 3 4 3 2 2 3 3 3 4 5 5 5 6 6 7 7 8 8 9 10 11 11 11 10 10 9 8 8 8 8 9
4 4 3 3 4 4 3 4 3 4 3 3 4 4 4 3 3 2 2 2 2 4 4 4 5 5 5 6 6 8 8 9 10 10 10 10 9 9 9 9 9 9 9
5 4 4 3 3 4 4 4 4 3 2 2 2 3 3 3 3 2 2 3 2 2 3 4 4 4 4 4 5 7 8 9 10 10 10 10 10 9 9 8 8 8 9
5 4 4 4 4 3 3 3 3 3 2 1 2 3 3 1 1 2 2 2 1 2 2 3 4 4 5 5 5 6 7 8 10 10 10 10 10 9 9 9 8 8 8
4 5 4 4 4 3 3 2 2 2 2 1 1 2 2 3 2 0 2 1 0 1 2 3 3 5 6 5 5 5 6 7 8 9 9 9 10 9 9 8 8 8 8
3 4 4 3 3 3 2 2 2 2 2 1 1 1 2 2 2 2 0 1 1 1 0 1 2 3 4 5 5 6 7 7 7 7 8 8 9 9 9 8 8 8 8
2 2 3 3 2 2 2 1 1 2 1 1 1 1 2 2 1 2 1 1 0 1 1 0 1 1 3 4 5 6 6 6 6 6 7 8 8 8 8 8 8 8 8
1 1 2 1 1 1 1 1 2 2 1 1 1 1 1 1 2 2 2 1 0 1 1 1 1 1 2 2 3 5 6 6 6 6 7 7 8 8 8 8 7 7 6
2 1 1 1 1 1 1 1 1 1 1 1 1 1 1 0 1 2 2 3 1 1 1 1 1 1 1 3 3 4 4 5 6 7 6 7 7 7 8 7 7 6 6
2 2 2 2 1 1 1 2 1 1 1 1 1 1 1 1 1 1 2 3 3 2 2 2 1 1 1 2 3 3 4 5 6 7 7 7 7 7 8 7 7 6 6
2 2 2 2 1 1 1 1 1 1 2 1 1 2 1 1 1 1 1 1 2 3 2 2 2 2 1 1 2 2 4 5 6 7 7 7 7 7 8 8 7 6 6
2 2 2 2 2 1 1 1 1 1 2 2 2 2 1 1 2 1 1 1 1 2 2 1 1 1 1 0 0 1 2 3 4 6 7 7 7 7 8 7 7 7 7
2 2 2 2 2 1 1 1 1 1 1 1 1 2 2 2 2 1 1 1 1 1 2 2 1 1 1 1 1 1 1 2 3 4 6 7 7 7 7 7 7 7 8
2 2 3 2 1 1 1 0 0 0 0 0 1 1 1 2 2 1 2 2 1 2 2 2 1 1 1 1 1 1 1 1 2 2 4 5 7 7 8 8 8 8 8
3 3 2 2 1 1 1 1 1 0 0 0 0 0 1 1 1 1 1 1 2 2 2 1 0 1 1 2 0 1 1 1 2 2 2 4 5 7 8 8 8 9 9
3 3 3 1 1 1 1 1 1 0 1 0 1 1 0 1 2 2 2 2 2 2 1 1 0 1 1 1 1 1 1 2 2 1 1 2 3 3 5 7 8 9 10
2 3 2 2 1 1 1 2 2 1 1 1 1 1 1 1 1 1 1 2 3 3 2 2 1 2 3 2 2 1 1 0 2 2 1 3 2 3 5 6 9 10 10
2 2 1 1 1 0 2 1 2 1 1 1 1 0 1 1 1 1 1 2 0 1 3 4 3 3 3 3 2 2 2 2 4 3 2 3 2 4 5 6 8 9 9
3 2 2 1 0 1 2 2 2 2 1 0 1 1 1 0 1 1 1 1 2 2 2 2 4 5 4 4 4 4 3 2 3 2 2 2 2 3 3 4 6 7 8
2 2 2 2 1 1 2 1 2 1 1 1 1 0 1 1 1 2 2 1 2 4 3 2 3 4 4 4 2 1 0 0 2 3 1 2 2 1 2 3 4 6 7
2 2 1 1 1 1 1 1 3 2 1 0 1 1 0 0 1 1 1 0 2 3 3 3 4 4 3 3 2 2 3 2 2 2 2 1 1 1 2 2 2 3 4
Wind_Direction
91 85 86 93 84 89 77 52 81 92 108 129 137 142 143 142 148 152 157 167 167 168 172 177 176 174 175 181 187 191 189 190 191 190 190 192 194 190 188 189 189 187 188
103 92 77 67 66 77 88 80 81 92 110 127 132 135 136 135 132 135 146 162 166 166 167 171 174 178 182 187 190 193 193 192 191 191 190 191 194 192 190 191 192 190 191
101 96 85 68 65 79 71 70 72 80 87 109 117 118 123 126 134 133 145 151 161 166 167 169 173 180 183 186 190 193 192 190 190 189 190 192 192 190 190 194 196 195 191
103 94 86 67 64 68 62 64 70 73 73 92 106 114 119 125 132 139 144 150 155 162 165 167 172 179 180 183 191 192 192 191 187 187 188 189 188 185 185 187 189 188 189
96 95 81 64 73 66 57 64 65 79 86 88 103 105 106 117 133 135 141 148 157 162 167 169 172 175 179 183 186 190 192 190 190 191 190 187 184 182 181 181 183 187 191
94 92 83 63 69 71 59 58 63 64 81 86 97 86 85 102 114 127 143 142 153 163 162 164 164 168 172 174 184 187 186 188 191 192 192 191 190 188 186 185 186 188 192
87 83 78 63 64 70 65 66 71 68 60 64 77 63 46 53 83 100 109 127 149 160 153 156 162 161 169 178 185 190 193 193 191 190 191 192 191 190 193 197 195 192 195
80 84 73 67 65 72 59 57 72 69 65 62 90 86 55 26 28 68 95 118 128 142 154 162 164 164 169 173 189 200 204 203 196 195 194 194 194 193 194 194 196 198 202
73 74 75 79 73 76 72 58 66 86 86 27 68 112 116 153 351 11 52 90 117 133 150 168 167 172 177 173 186 199 201 201 198 197 197 197 196 194 198 200 200 202 204
71 79 80 78 75 75 81 76 72 78 105 88 16 54 125 148 138 57 354 6 29 136 170 174 175 180 183 178 179 188 194 191 194 198 199 201 198 195 198 201 204 207 208
65 75 82 82 77 73 70 59 56 63 90 118 105 77 70 58 87 133 182 341 353 315 206 185 189 180 179 173 178 187 190 188 194 200 203 201 200 199 197 201 205 209 207
62 67 89 88 92 85 75 66 67 73 76 81 79 104 123 130 146 137 164 198 266 303 322 227 186 177 172 175 189 187 187 190 193 199 201 199 194 193 194 199 203 207 206
89 86 99 100 93 79 82 68 68 49 49 70 82 94 125 163 165 153 145 162 205 298 326 335 310 166 157 158 187 195 196 200 197 197 189 188 191 193 193 195 199 202 201
155 137 116 110 89 79 68 55 57 29 43 54 52 80 96 54 135 148 154 147 126 339 332 290 316 261 187 174 189 196 197 205 202 196 192 193 195 195 195 196 199 200 197
126 101 106 109 100 88 75 80 59 13 39 34 13 39 54 22 81 132 142 152 151 168 251 273 288 271 221 184 196 190 194 202 200 193 192 193 194 195 196 195 195 191 190
115 105 98 101 95 86 85 80 48 18 56 19 35 57 32 4 38 50 110 118 143 161 198 248 245 255 213 169 179 178 199 201 198 193 194 196 197 195 197 196 191 189 190
132 138 132 114 102 88 79 74 46 45 53 24 23 58 28 33 44 24 65 87 95 130 163 271 280 314 49 21 6 186 190 194 206 201 199 198 199 197 195 194 194 193 194
157 151 127 109 109 98 78 80 50 33 63 45 13 39 8 29 44 38 63 64 72 111 148 160 319 347 324 260 249 248 205 208 211 212 202 198 198 198 201 204 206 206 205
146 137 125 128 129 124 102 91 138 28 48 97 61 69 25 63 51 52 67 72 70 67 95 139 236 288 294 313 341 323 299 281 227 219 206 209 212 213 214 213 213 214 211
147 144 141 147 155 146 116 80 100 54 4 8 72 134 120 125 141 123 96 92 93 74 74 99 211 293 293 303 359 318 317 309 273 253 219 223 224 224 227 223 219 216 215
157 152 143 156 179 162 162 139 137 111 93 61 14 341 171 130 118 129 133 144 127 118 112 110 236 309 301 313 279 258 253 279 278 255 238 241 227 232 239 237 228 223 219
142 140 148 168 189 205 77 103 128 150 148 135 322 327 351 25 34 58 87 142 157 163 179 191 230 230 252 250 260 261 238 276 284 270 213 251 217 231 235 234 230 223 221
145 146 158 145 168 353 52 58 88 117 152 183 210 281 330 10 35 45 40 39 7 215 199 189 202 229 233 234 235 267 241 225 238 244 197 253 243 238 245 240 232 221 219
164 173 173 170 144 344 30 50 75 76 94 305 218 187 174 326 44 92 65 7 324 304 272 217 210 229 237 232 216 220 231 256 273 268 183 225 247 245 255 243 235 220 221
180 190 182 174 178 299 348 41 85 101 79 14 355 139 154 153 33 76 89 28 327 313 301 298 263 253 257 259 233 199 256 120 291 285 238 193 237 248 259 256 248 229 227
189 185 175 180 193 269 309 75 103 122 108 18 354 357 10 35 22 81 121 170 289 290 310 320 319 316 304 298 290 206 200 206 234 269 256 190 222 193 285 271 252 243 238
Height
1500 1499 1499 1498 1498 1497 1495 1494 1493 1493 1494 1495 1497 1499 1501 1503 1504 1506 1508 1510 1512 1514 1515 1517 1518 1520 1521 1522 1524 1525 1527 1528 1529 1530 1531 1531 1532 1533 1534 1535 1536 1537 1538
1502 1501 1501 1500 1499 1498 1496 1494 1493 1493 1493 1494 1497 1499 1501 1503 1504 1506 1508 1510 1512 1514 1515 1517 1518 1519 1521 1522 1523 1524 1525 1526 1527 1528 1530 1530 1531 1532 1533 1534 1535 1536 1537
1504 1503 1503 1502 1501 1500 1499 1497 1495 1495 1494 1495 1497 1500 1501 1503 1505 1506 1508 1510 1512 1514 1515 1517 1518 1519 1520 1521 1522 1523 1524 1525 1526 1527 1528 1529 1530 1531 1531 1532 1534 1535 1536
1506 1505 1504 1504 1503 1502 1501 1499 1498 1497 1497 1497 1499 1501 1503 1504 1506 1508 1509 1511 1513 1514 1516 1517 1518 1518 1519 1520 1521 1522 1523 1524 1525 1526 1527 1528 1529 1529 1530 1531 1532 1533 1534
1507 1507 1506 1505 1504 1503 1502 1501 1500 1500 1500 1500 1501 1503 1504 1506 1507 1509 1510 1512 1513 1514 1516 1517 1518 1518 1519 1519 1520 1521 1521 1522 1523 1524 1525 1526 1527 1528 1529 1530 1530 1531 1532
1508 1508 1507 1507 1506 1505 1504 1503 1503 1502 1502 1502 1503 1504 1506 1507 1508 1509 1511 1512 1514 1515 1516 1517 1517 1518 1518 1519 1519 1520 1520 1521 1522 1523 1524 1525 1525 1526 1527 1528 1529 1529 1530
1510 1509 1509 1508 1508 1507 1506 1505 1505 1504 1504 1504 1504 1506 1507 1509 1509 1510 1511 1513 1514 1515 1516 1516 1517 1517 1518 1518 1518 1519 1519 1520 1520 1521 1522 1523 1524 1524 1525 1526 1527 1528 1528
1511 1510 1510 1509 1509 1508 1507 1507 1506 1506 1506 1506 1506 1506 1508 1511 1510 1511 1512 1513 1514 1515 1516 1516 1517 1517 1517 1517 1518 1518 1518 1518 1519 1520 1520 1521 1522 1523 1523 1524 1525 1525 1526
1512 1511 1511 1510 1510 1509 1509 1508 1508 1508 1508 1508 1508 1509 1509 1510 1511 1512 1513 1514 1514 1515 1515 1516 1516 1516 1517 1517 1517 1517 1517 1517 1517 1518 1518 1519 1520 1520 1521 1522 1522 1523 1524
1513 1512 1512 1511 1511 1510 1510 1510 1509 1509 1509 1509 1510 1510 1511 1511 1511 1513 1514 1514 1514 1515 1515 1515 1516 1516 1516 1516 1516 1516 1515 1516 1516 1516 1517 1517 1518 1518 1519 1519 1520 1521 1522
1513 1513 1513 1512 1512 1511 1511 1510 1510 1510 1510 1510 1510 1511 1511 1512 1512 1512 1513 1514 1514 1515 1515 1515 1515 1516 1515 1515 1515 1515 1515 1515 1515 1515 1515 1515 1515 1516 1516 1517 1518 1518 1519
1514 1513 1513 1512 1512 1512 1511 1511 1511 1511 1510 1510 1510 1511 1511 1511 1511 1511 1512 1512 1513 1514 1514 1514 1514 1515 1515 1515 1515 1514 1514 1514 1514 1513 1513 1513 1514 1514 1514 1515 1516 1516 1516
1513 1513 1513 1512 1512 1512 1512 1511 1511 1510 1510 1510 1510 1510 1511 1511 1511 1511 1511 1511 1511 1512 1513 1513 1513 1514 1514 1513 1513 1513 1513 1513 1512 1512 1512 1512 1512 1513 1513 1514 1514 1514 1514
1513 1513 1512 1512 1512 1512 1511 1511 1510 1510 1510 1510 1510 1510 1510 1510 1510 1510 1510 1510 1510 1511 1511 1512 1512 1512 1512 1512 1512 1512 1512 1511 1511 1511 1511 1511 1511 1511 1512 1512 1512 1512 1512
1513 1512 1512 1511 1511 1511 1511 1510 1510 1509 1509 1509 1509 1509 1509 1509 1509 1509 1509 1509 1510 1509 1510 1510 1511 1511 1511 1511 1511 1510 1510 1510 1510 1510 1510 1510 1510 1510 1510 1510 1510 1510 1511
1512 1511 1511 1510 1510 1510 1510 1509 1509 1508 1508 1508 1508 1508 1508 1508 1508 1508 1508 1508 1508 1508 1508 1508 1509 1509 1510 1509 1509 1509 1508 1508 1508 1508 1508 1508 1508 1509 1509 1509 1509 1509 1509
1511 1511 1510 1510 1509 1509 1508 1508 1507 1507 1506 1506 1506 1506 1506 1506 1506 1506 1506 1506 1506 1506 1506 1506 1507 1508 1508 1508 1507 1507 1507 1506 1506 1507 1507 1507 1507 1507 1507 1507 1507 1507 1507
1511 1510 1509 1509 1508 1508 1507 1507 1506 1505 1505 1505 1505 1505 1505 1505 1504 1504 1504 1504 1504 1504 1504 1504 1505 1505 1506 1506 1506 1505 1505 1505 1505 1505 1505 1505 1506 1506 1506 1506 1506 1506 1506
1510 1509 1508 1508 1507 1507 1506 1505 1505 1504 1504 1503 1503 1503 1503 1503 1502 1502 1502 1502 1502 1502 1502 1502 1502 1503 1503 1503 1503 1503 1503 1503 1503 1503 1503 1503 1504 1504 1504 1504 1504 1504 1504
1509 1508 1508 1507 1506 1505 1505 1504 1504 1503 1502 1502 1502 1501 1501 1501 1501 1500 1500 1500 1500 1500 1500 1500 1500 1501 1501 1501 1501 1500 1500 1500 1500 1501 1501 1501 1501 1501 1502 1502 1502 1502 1502
1507 1507 1506 1505 1505 1504 1503 1503 1502 1502 1501 1501 1500 1500 1499 1499 1499 1499 1499 1498 1498 1498 1498 1498 1498 1498 1498 1498 1498 1498 1498 1498 1498 1498 1498 1498 1498 1499 1499 1499 1499 1499 1499
1506 1505 1505 1504 1503 1502 1502 1501 1500 1500 1499 1499 1498 1498 1497 1497 1497 1497 1496 1496 1496 1496 1496 1496 1496 1495 1495 1496 1496 1496 1496 1495 1495 1496 1495 1495 1496 1495 1495 1495 1496 1496 1496
1504 1504 1503 1503 1502 1501 1500 1500 1499 1498 1497 1497 1496 1496 1495 1495 1495 1495 1494 1494 1494 1494 1494 1494 1493 1493 1493 1493 1493 1493 1493 1493 1492 1493 1493 1492 1492 1492 1492 1492 1492 1493 1493
1502 1502 1502 1501 1501 1500 1499 1498 1497 1496 1495 1495 1494 1494 1493 1493 1492 1492 1491 1491 1491 1491 1491 1491 1491 1491 1491 1491 1491 1491 1490 1490 1490 1490 1490 1489 1489 1488 1489 1489 1489 1489 1490
1500 1500 1499 1499 1499 1498 1497 1496 1495 1494 1493 1493 1492 1492 1491 1490 1490 1489 1488 1488 1488 1488 1488 1488 1488 1488 1488 1488 1488 1488 1487 1487 1486 1486 1486 1486 1485 1485 1485 1485 1486 1486 1486
1498 1498 1497 1497 1496 1496 1495 1494 1493 1492 1491 1490 1490 1489 1489 1488 1487 1486 1486 1485 1485 1485 1485 1486 1486 1485 1485 1485 1485 1485 1484 1484 1483 1483 1483 1483 1482 1482 1482 1482 1482 1483 1483